Location: *
(52.2090°N, 4.1550°W)
Time: 09:52:37
(UTC+00:00)

Cosmos 2322 Rocket - Pass Details

Date: 19 July 2019
Orbit: 833 x 850 km, 71.0° (Epoch: 20 August)

Event Time Altitude Azimuth Distance (km) Brightness Sun altitude
Rises 22:58:43 0° 252° (WSW) 3,414 5.4 -14.8°
Reaches altitude 10° 23:01:33 10° 264° (W) 2,481 4.8 -14.9°
Maximum altitude 23:06:20 27° 321° (NW) 1,595 4.4 -15.1°
Drops below altitude 10° 23:11:07 10° 18° (NNE) 2,487 5.5 -15.4°
Sets 23:13:59 0° 31° (NNE) 3,423 6.0 -15.5°
